STARLINK-11700, 64068

Orbit data source: Space-Track

STARLINK-11700, 64068 is a payload satellite owned by SpaceX/Seattle (US) in LEO that was launched on Wed, 21 May 2025 UTC via an FALCON 9 launch vehicle from the Air Force Eastern Test Range (AFETR). Payload-class satellites include a variety of spacecraft equipped with specific instruments for various scientific and technological missions. These include communications satellites like Starlink; space stations such as the ISS; scientific satellites like the Hubble; Earth observation satellites from companies like Planet Labs, Umbra, and HawkEye 360; GPS; miniature CubeSats for education and research; and military/defense satellites.

Loading next visibility...
Identifier
64068, 2025-107E
Orbit
LEO
Country
Flag of USUS
Related business
Manufacturer
SpaceX/Seattle
Mission
Operational Commercial Communications
Bus & Motor
STARLINK V2MD, Unknown motor
Mass
960 kg wet, ~910 kg dry
Launch date (UTC)
2025-05-21 (1 year ago)
Launch vehicle
FALCON 9
Launch site
Air Force Eastern Test Range (AFETR)
Object type
Payload
Rocket body
Debris
Shape & HBR
Box + 2 Pan, 18.1 m
Radar Cross Section
36.964 m², Large (>1 m²)

Expand to show TLE details & history
Last TLE update: 10 hours ago

TLE from 10 hours ago
0 STARLINK-11700
1 64068U 25107E   26171.44065442  .00137271  00000-0  10512-2 0  9997
2 64068  43.0016 199.2871 0003356 259.0514 100.9976 15.70936993 63452
Epoch: 2026-06-20T10:34Z
TLE epoch observation values (Epoch: 2026-06-20T10:34:32.541Z)
Latitude
-0.00005°
Longitude
131.99622°
Altitude
356.421 km
Speed
7.697 km/s
True Right ascension
13h 17m 08s
True Declination
0° 00' 00"
Sunlit
Object was in partial shadow at epoch
Visualization orbit readout
Latitude
Unknown
Longitude
Unknown
Altitude
Unknown
Speed
Unknown
Apparent Right ascension
Unknown
Apparent Declination
Unknown
Sunlit
N/A
Visualization observer readout
Local Sidereal Time
07:18:53
Azimuth
Unknown
Elevation
Unknown
Doppler factor
Unknown
Orbital elements
Apogee altitude
360.46 km
Perigee altitude
355.939 km
Semi-major axis
6,736.336 km
Eccentricity
0.00034
Inclination
43.0016°
RAAN
199.2871°
Arg. of periapsis
259.0514°
True anomaly
101.03535°
Mean anomaly
100.9976°
Eccentric anomaly
101.01647°
Mean motion
3.92561 °/min
Orbital period
91.71 mins
BSTAR
0.0010512
Loading maneuver chart data...
Computing Atmospheric mass density...
Loading historical data...
Loading historical data...
Loading historical data...
Loading historical data...
Loading historical data...
Loading historical data...
Loading historical data...

Documentation

Showing up to 5 results
|